Location: Ashtead
(51.3000°N, 0.3000°W)
Time: 21:21:33
(UTC+00:00)

Cosmos 2221 - Pass Details

Date: 26 September 2023
Orbit: 584 x 608 km, 82.5° (Epoch: 11 December)

Event Time Altitude Azimuth Distance (km) Brightness Sun altitude
Exits shadow 02:43:20 16° 121° (ESE) 1,570 4.8 -28.4°
Drops below altitude 10° 02:48:32 10° 37° (NE) 1,956 6.0 -27.7°
Enters shadow 03:52:30 -54° 192° (SSW) 10,951 8.9 -19.2°
Maximum altitude 04:22:22 45° 286° (WNW) 823 2.8 -14.8°
